sat.trackr.live / text

‹ back to catalog

STARLINK-34934

NORAD 65897 · 2025-224R

PAYLOAD ACTIVE UNKNOWN

§ Identity

Operator
Country
US
Launch date
2025-10-07
Launch site
AFETR
Launch vehicle
Mass (kg)
RCS (m²)

Purposes: comms

External: N2YO · Heavens-Above · Gunter

§ Orbital elements

Epoch: 2026-09-20T03:57:37.988928Z

Period
93.85 min
Inclination
53.1599°
Eccentricity
0.0001283
Mean motion
15.34401221 rev/d
Perigee alt
461.8 km
Apogee alt
463.6 km
Semi-major
6,840.8 km
B*
4.8487e-4
RAAN
183.4653°
Arg perigee
69.7284°
Mean anomaly
290.3857°
Rev number
5,466

§ Raw data

STARLINK-349341 65897U 25224R   26263.16502302  .00016041  00000+0  48487-3 0  99932 65897  53.1599 183.4653 0001283  69.7284 290.3857 15.34401221 54667

JSON: /api/v1/satellites/65897 · /tle

For live sub-satellite position, see the globe view (requires WebGL).

§ Visibility from observer

Set your observer location to see the next 7 days of passes ≥ 10°. The values pass through the URL so the page stays shareable.

No JS? Fill the form by hand. The geolocation button needs JavaScript.